Notices

What's New in latest Release from April 7th, 2021:

- Updated Glossary, including Speed of Maximum Gust, and Total Hourly Precipitation

- Updated national and regional climate services offices contacts and prices information

- Addition of station inventory lists for 1981-2010, 1971-2000, and 1961-1990 Normals.

If you haven't already, please take our survey and provide feedback about our website: https://eccc.sondage-survey.ca/f/LanguageSelection.aspx?s=442ca660-fcf1-47c0-95a9-59707d6fd709

Hourly Data Report for January 16, 2003

TORONTO CITY
ONTARIO

43°40'00.000" N
79°24'00.000" W
112.50 m
6158355
71508
XTO

Download Data

Hourly Data (January 2003)
Hourly Data Report for January 16, 2003
TIME
LST
Temp Definition
°C
Dew Point Definition
°C
Rel Hum Definition
%
Precip. Amount Definition
mm

Wind Dir Definition
10's deg

Wind Spd Definition
km/h
Visibility Definition
km
Stn Press Definition
kPa
Hmdx Definition


Wind Chill Definition


Weather Definition


00:00 -6.1 -11.1 68     0 LegendMM 100.78     LegendNANA
01:00
02:00 -7.0 -9.0 86     0 LegendMM 100.78     LegendNANA
03:00 -6.9 -9.9 79   LegendMM LegendMM LegendMM 100.80     LegendNANA
04:00 -7.4 -10.7 77     0 LegendMM 100.81     LegendNANA
05:00 -7.3 -10.7 77     0 LegendMM 100.79     LegendNANA
06:00 -7.2 -10.8 75     0 LegendMM 100.78     LegendNANA
07:00 -7.1 -10.7 75     0 LegendMM 100.79     LegendNANA
08:00 -7.3 -11.1 74     0 LegendMM 100.75     LegendNANA
09:00 -6.6 -11.2 70     0 LegendMM 100.73     LegendNANA
10:00 -6.0 -11.0 68     0 LegendMM 100.72     LegendNANA
11:00 -5.2 -11.2 63     0 LegendMM 100.68     LegendNANA
12:00 -5.1 -13.8 50     0 LegendMM 100.58     LegendNANA
13:00 -5.5 -13.4 54     0 LegendMM 100.42     LegendNANA
14:00 -5.5 -13.2 55     0 LegendMM 100.30     LegendNANA
15:00 -5.8 -12.6 59     0 LegendMM 100.22     LegendNANA
16:00 -5.4 -11.8 61     0 LegendMM 100.16     LegendNANA
17:00 -5.5 -11.3 64     0 LegendMM 100.08     LegendNANA
18:00 -5.7 -11.3 65     0 LegendMM 100.04     LegendNANA
19:00 -5.7 -11.1 66     0 LegendMM 100.01     LegendNANA
20:00 -5.6 -10.5 68     0 LegendMM 100.02     LegendNANA
21:00 -5.3 -10.0 69     0 LegendMM 99.95     LegendNANA
22:00 -5.5 -9.8 72     0 LegendMM 99.89     LegendNANA
23:00 -5.7 -9.7 73     0 LegendMM 99.86     LegendNANA

Notes on Data Quality.

Legend

  • E = Estimated
  • M = Missing
  • NA = Not Available*
  • [empty] = Indicates an unobserved value
Date modified: